EW2192 Weather Reports


time (UTC)temp
C
wind
direction
speed
KPH
gust
KPH
rain 1hr
cm
rain 24hr
cm
rain mn
cm
humidity
%
barometer
mb
20260906161539 23 5 4.8 9.7 0.00 0.00 0.00 76 1017.6
20260906160005 23 5 6.4 12.9 0.00 0.00 0.00 79 1017.5
20260906154557 22 5 1.6 9.7 0.00 0.00 0.00 82 1017.4
20260906153011 22 5 3.2 12.9 0.00 0.00 0.00 84 1017.5
20260906151557 21 5 3.2 16.1 0.00 0.00 0.00 86 1017.4
20260906150022 20 5 3.2 14.5 0.00 0.00 0.00 88 1017.2
20260906144610 20 5 3.2 19.3 0.00 0.00 0.00 90 1017.2
20260906143026 20 5 3.2 12.9 0.00 0.00 0.00 91 1017.3
20260906141623 19 5 3.2 12.9 0.00 0.00 0.00 92 1017.2
20260906140048 19 5 3.2 14.5 0.00 0.00 0.00 92 1017.3
20260906134531 19 5 4.8 14.5 0.00 0.00 0.00 93 1017.3
20260906133120 19 5 0.0 8.0 0.00 0.00 0.00 93 1017.2
20260906131515 19 5 3.2 8.0 0.00 0.00 0.00 93 1017.1
20260906130115 18 5 0.0 6.4 0.00 0.00 0.00 94 1017.0
20260906124534 18 5 0.0 8.0 0.00 0.00 0.00 94 1017.0
20260906123002 18 5 1.6 6.4 0.00 0.00 0.00 94 1017.0
20260906121551 18 5 0.0 1.6 0.00 0.00 0.00 94 1016.8
20260906120016 18 5 0.0 3.2 0.00 0.00 0.00 94 1016.8
20260906114611 18 5 0.0 1.6 0.00 0.00 0.00 93 1016.7
20260906113031 18 5 0.0 4.8 0.00 0.00 0.00 93 1016.4
20260906111624 18 5 0.0 4.8 0.00 0.00 0.00 93 1016.2
20260906110044 18 5 0.0 4.8 0.00 0.00 0.00 93 1016.1
20260906104508 18 5 0.0 1.6 0.00 0.00 0.00 93 1016.1
20260906103112 18 5 0.0 3.2 0.00 0.00 0.00 93 1016.1
20260906101531 18 5 0.0 3.2 0.00 0.00 0.00 93 1015.8
20260906100113 18 5 0.0 1.6 0.00 0.00 0.00 92 1015.5
20260906094538 18 5 0.0 1.6 0.00 0.00 0.00 92 1015.5
20260906093008 18 5 0.0 1.6 0.00 0.00 0.00 92 1015.5
20260906091556 19 5 0.0 6.4 0.00 0.00 0.00 92 1015.6
20260906090027 19 5 0.0 3.2 0.00 0.00 0.00 92 1015.6
20260906084618 19 5 0.0 0.0 0.00 0.00 0.00 92 1015.6
20260906083038 19 5 0.0 3.2 0.00 0.00 0.00 92 1015.3
20260906081629 19 5 0.0 6.4 0.00 0.00 0.00 92 1015.2
20260906080047 19 5 0.0 1.6 0.00 0.00 0.00 92 1015.5
20260906074508 19 5 0.0 4.8 0.00 0.00 0.00 92 1015.4
20260906073106 19 5 0.0 4.8 0.00 0.00 0.00 92 1015.5
20260906071526 19 5 0.0 4.8 0.00 0.00 0.00 91 1015.5
20260906070120 19 5 0.0 1.6 0.00 0.00 0.00 91 1015.8
20260906064538 19 5 0.0 1.6 0.00 0.00 0.00 91 1015.8
20260906063008 19 5 0.0 3.2 0.00 0.00 0.00 91 1016.0
20260906061605 19 5 0.0 1.6 0.00 0.00 0.00 90 1015.9
20260906060017 20 5 0.0 1.6 0.00 0.00 0.00 90 1015.8
20260906054615 20 5 0.0 1.6 0.00 0.00 0.00 90 1015.9
20260906053039 20 5 0.0 0.0 0.00 0.00 0.00 90 1015.9
20260906051627 20 5 0.0 0.0 0.00 0.00 0.00 90 1015.8
20260906050050 20 5 0.0 0.0 0.00 0.00 0.00 90 1015.9
20260906044521 20 5 0.0 0.0 0.00 0.00 0.00 90 1015.8
20260906043115 20 5 0.0 0.0 0.00 0.00 0.00 90 1015.8
20260906041540 20 5 0.0 0.0 0.00 0.00 0.00 89 1015.8
20260906040007 20 5 0.0 0.0 0.00 0.00 0.00 89 1015.7
20260906034605 20 5 0.0 0.0 0.00 0.00 0.00 89 1015.6
20260906033023 20 5 0.0 0.0 0.00 0.00 0.00 88 1015.8
20260906031625 20 5 0.0 0.0 0.00 0.00 0.00 88 1015.9
20260906030043 20 5 0.0 1.6 0.00 0.00 0.00 87 1016.2
20260906024502 20 5 0.0 1.6 0.00 0.00 0.00 86 1016.0
20260906023057 21 5 0.0 0.0 0.00 0.00 0.00 85 1015.9
20260906021521 21 5 0.0 3.2 0.00 0.00 0.00 83 1015.6
20260906020117 22 5 0.0 1.6 0.00 0.00 0.00 81 1015.6
20260906014541 22 5 0.0 0.0 0.00 0.00 0.00 79 1014.4
20260906013120 23 5 0.0 1.6 0.00 0.00 0.00 77 1013.8
20260906011538 23 5 0.0 1.6 0.00 0.00 0.00 75 1013.5
20260906010133 24 5 0.0 4.8 0.00 0.00 0.00 74 1013.2
20260906004547 24 5 1.6 4.8 0.00 0.00 0.00 73 1013.1
20260906003003 25 5 1.6 6.4 0.00 0.00 0.00 72 1012.8
20260906001600 25 5 1.6 4.8 0.00 0.00 0.00 71 1012.7
20260906000027 26 5 0.0 8.0 0.00 0.00 0.00 69 1012.8
20260905234619 26 5 0.0 3.2 0.00 0.00 0.00 67 1013.0
20260905233043 26 5 1.6 8.0 0.00 0.00 0.00 65 1013.1
20260905231635 27 5 1.6 6.4 0.00 0.00 0.00 65 1013.1
20260905230122 27 5 1.6 4.8 0.00 0.00 0.00 65 1013.3
20260905224518 27 5 1.6 4.8 0.00 0.00 0.00 65 1013.3
20260905223110 27 5 1.6 6.4 0.00 0.00 0.00 65 1013.5
20260905221537 27 5 1.6 9.7 0.00 0.00 0.00 65 1013.2
20260905220128 27 5 0.0 4.8 0.00 0.00 0.00 65 1013.4
20260905214556 27 5 0.0 8.0 0.00 0.00 0.00 65 1013.4
20260905213012 27 5 1.6 6.4 0.00 0.00 0.00 65 1013.8
20260905211612 27 5 0.0 6.4 0.00 0.00 0.00 65 1013.9
20260905210037 27 5 0.0 6.4 0.00 0.00 0.00 64 1014.1
20260905204505 27 5 0.0 4.8 0.00 0.00 0.00 65 1014.4
20260905203101 27 5 1.6 6.4 0.00 0.00 0.00 64 1014.6
20260905201518 28 5 0.0 3.2 0.00 0.00 0.00 63 1014.8
20260905200112 28 5 1.6 8.0 0.00 0.00 0.00 62 1014.9
20260905194530 28 5 0.0 3.2 0.00 0.00 0.00 63 1015.0
20260905193126 28 5 1.6 4.8 0.00 0.00 0.00 63 1014.9
20260905191554 27 5 0.0 4.8 0.00 0.00 0.00 65 1014.9
20260905190016 27 5 1.6 6.4 0.00 0.00 0.00 65 1015.1
20260905184610 27 5 1.6 6.4 0.00 0.00 0.00 66 1015.1
20260905183024 27 5 1.6 8.0 0.00 0.00 0.00 69 1015.0
20260905181622 26 5 1.6 9.7 0.00 0.00 0.00 69 1015.0
20260905180034 26 5 1.6 6.4 0.00 0.00 0.00 72 1015.2
20260905174625 25 5 1.6 4.8 0.00 0.00 0.00 76 1015.5
20260905173046 24 5 0.0 4.8 0.00 0.00 0.00 80 1015.4
20260905171509 23 5 0.0 3.2 0.00 0.00 0.00 80 1015.8
20260905164526 23 5 0.0 4.8 0.00 0.00 0.00 81 1016.0
20260905163115 23 5 0.0 4.8 0.00 0.00 0.00 82 1016.0